Regional Weather Roundup
Issued by NWS

Home | Current Version | Previous Version | Graphics & Text | Print | Product List | Glossary On
Versions: 1 2 3 4 5 6 7 8 9 10 11 12 13 14 15 16 17 18 19 20 21 22 23 24 25 26 27 28 29 30 31 32 33 34 35 36 37 38 39 40 41 42 43 44 45 46 47 48 49 50
000
ASUS43 KLSX 021259
RWRMO

WEATHER SUMMARY FOR MISSOURI
NATIONAL WEATHER SERVICE SPRINGFIELD MO
800 AM CDT TUE SEP 02 2014

NOTE: "FAIR" INDICATES FEW OR NO CLOUDS BELOW 12,000 FEET WITH NO
       SIGNIFICANT WEATHER AND/OR OBSTRUCTIONS TO VISIBILITY.
       CURRENT SKY AND/OR WEATHER CONDITIONS ARE NOT AVAILABLE FOR
       CHILLICOTHE AND FARMINGTON.

MOZ001>031-035>038-043-044-053-054-021400-
...NORTHERN AND WESTERN MISSOURI...

CITY           SKY/WX    TMP DP  RH WIND       PRES   REMARKS
KANSAS CTY INT FOG       66  65  96 CALM      29.98R VSB 3/4
KANSAS C DTWN  CLOUDY    71  69  93 SW3       29.97R FOG
LEE`S SUMMIT   CLOUDY    70  69  97 CALM      29.97R FOG
ST JOSEPH      PTSUNNY   62  62 100 CALM      29.98R
KIRKSVILLE     FOG       66  65  96 CALM      29.96R VSB 1/4

$$
MOZ066>068-077>081-088>096-101>105-021400-
...SOUTHWEST MISSOURI...

CITY           SKY/WX    TMP DP  RH WIND       PRES   REMARKS
SPRINGFIELD    CLOUDY    67  65  93 S10       30.03R
JOPLIN         LGT RAIN  67  66  97 S12       30.00R

$$
MOZ032>034-039>042-045>050-055>058-069>072-021400-
...CENTRAL MISSOURI...

CITY           SKY/WX    TMP DP  RH WIND       PRES   REMARKS
COLUMBIA       CLOUDY    70  69  97 W3        29.95R
JEFFERSON CITY CLOUDY    71  69  93 CALM      29.95R
ROLLA            N/A    N/A N/A N/A MISG      29.95R
SEDALIA        CLOUDY    72  69  90 SW6       29.97R
OSAGE BEACH    CLOUDY    70  66  88 SW8       29.97R

$$
MOZ051-052-059>065-021400-
...EAST CENTRAL MISSOURI...

CITY           SKY/WX    TMP DP  RH WIND       PRES   REMARKS
ST LOUIS INTL  CLOUDY    72  68  87 SW3       29.93S
SPIRIT OF STL  CLOUDY    71  68  90 CALM      29.92R
ST CHARLES     CLOUDY    70  69  97 CALM      29.91F

$$
MOZ072>076-082>087-097>100-106>115-021400-
...SOUTH CENTRAL AND SOUTHEAST MISSOURI...

CITY           SKY/WX    TMP DP  RH WIND       PRES   REMARKS
CAPE GIRARDEAU CLOUDY    77  73  87 SW7       29.96R
FARMINGTON     CLOUDY    73  70  88 W5        29.98R
POPLAR BLUFF   CLOUDY    76  70  82 SW9       29.99R
WEST PLAINS    LGT RAIN  67  64  90 S6        30.04R

$$


USA.gov is the U.S. government's official web portal to all federal, state and local government web resources and services.